Location: Hokitika
(42.7170°S, 170.9670°E)
Time: 08:46:55
(UTC+13:00)

Meteor 2-8 Rocket - Pass Details

Date: 24 January 2019
Orbit: 937 x 957 km, 82.5° (Epoch: 16 February)

Event Time Altitude Azimuth Distance (km) Brightness Sun altitude
Rises 23:18:21 0° 190° (S) 3,637 8.6 -19.1°
Reaches altitude 10° 23:20:51 10° 190° (S) 2,685 7.7 -19.4°
Maximum altitude 23:27:00 80° 275° (W) 967 4.5 -20.1°
Enters shadow 23:30:14 30° 359° (N) 1,638 5.2 -20.4°
